Fort Stockton, TX

1:01 PM CDT on July 27, 2017 (GMT -0500)
Fort Stockton-Pecos County

Weather History for KFST - March, 2014

Change the Weather History Date:

Wednesday, March 12, 2014

  Actual Average Record
Temperature  
Mean Temperature 50 °F -  
Max Temperature 57 °F 68 °F 88 °F (2011)
Min Temperature 39 °F 44 °F 32 °F (2009)
Degree Days  
Heating Degree Days 15    
Moisture  
Dew Point 25 °F    
Average Humidity 42    
Maximum Humidity 58    
Minimum Humidity 24    
Precipitation  
Precipitation 0.00 in - - ()
Sea Level Pressure  
Sea Level Pressure 30.23 in    
Wind  
Wind Speed 19 mph (NNE)    
Max Wind Speed 30 mph    
Max Gust Speed 43 mph    
Visibility 6 miles    
Events      
Averages and records for this station are not official NWS values.
T = Trace of Precipitation, MM = Missing Value Source: NWS Daily Summary

Daily Weather History Graph

Daily Weather History Graph

Search for Another Location

Airport or City:

Trip Planner

Search our weather history database for the weather conditions in past years. The results will help you decide how hot, cold, wet, or windy it might be!

Date:

Astronomy

Mar. 12, 2014 Rise Set
Actual Time 8:05 AM CDT 7:57 PM CDT
Civil Twilight 7:41 AM CDT 8:22 PM CDT
Nautical Twilight 7:13 AM CDT 8:50 PM CDT
Astronomical Twilight 6:45 AM CDT 9:18 PM CDT
Moon 4:41 PM CDT (3/12) 5:26 AM CDT (3/12)
Length of Visible Light 12h 40m
Length of Day
11h 52m
Waxing Gibbous, 85% of the Moon is Illuminated
Mar 12
Waxing Gibbous
Mar 16
Full
Mar 23
Last Quarter
Mar 30
New
Apr 7
First Quarter

Hourly Weather History & Observations

Time (CDT) Temp. Windchill Dew Point Humidity Pressure Visibility Wind Dir Wind Speed Gust Speed Precip Events Conditions
12:30 AM 61.0 °F - 27.0 °F 27% 30.00 in 1.8 mi NNE 25.3 mph 40.3 mph N/A   Haze
12:38 AM 60.1 °F - 32.0 °F 35% 30.01 in 1.2 mi NNE 24.2 mph 40.3 mph N/A   Haze
12:53 AM 59.0 °F - 33.1 °F 38% 29.91 in 1.5 mi NE 26.5 mph 36.8 mph N/A   Haze
1:21 AM 55.0 °F - 32.0 °F 42% 30.06 in 2.0 mi NNE 29.9 mph 42.6 mph N/A   Haze
1:53 AM 52.0 °F - 30.9 °F 45% 29.99 in 2.5 mi NNE 25.3 mph 38.0 mph N/A   Haze
2:21 AM 50.0 °F - 30.0 °F 46% 30.14 in 3.0 mi NNE 23.0 mph 34.5 mph N/A   Haze
2:46 AM 48.0 °F - 30.9 °F 52% 30.18 in 2.5 mi North 23.0 mph 29.9 mph N/A   Haze
2:53 AM 48.0 °F - 30.0 °F 50% 30.09 in 2.5 mi North 25.3 mph 28.8 mph N/A   Haze
3:01 AM 46.9 °F - 30.0 °F 52% 30.20 in 3.0 mi North 23.0 mph 32.2 mph N/A   Haze
3:32 AM 46.9 °F - 30.0 °F 52% 30.22 in 2.5 mi North 19.6 mph 26.5 mph N/A   Haze
3:53 AM 46.0 °F 38.0 °F 28.9 °F 51% 30.13 in 2.5 mi North 21.9 mph - N/A   Haze
4:34 AM 44.1 °F 36.2 °F 28.0 °F 53% 30.24 in 3.0 mi North 18.4 mph 28.8 mph N/A   Haze
4:53 AM 44.1 °F 36.8 °F 28.0 °F 53% 30.15 in 3.0 mi North 16.1 mph - N/A   Haze
5:27 AM 42.1 °F 33.3 °F 28.0 °F 58% 30.26 in 5.0 mi North 19.6 mph 29.9 mph N/A   Haze
5:53 AM 42.1 °F 35.2 °F 28.0 °F 58% 30.19 in 5.0 mi North 12.7 mph - N/A   Haze
6:53 AM 41.0 °F 33.1 °F 27.0 °F 57% 30.23 in 5.0 mi NNW 15.0 mph - N/A   Haze
7:53 AM 39.0 °F 31.8 °F 25.0 °F 57% 30.28 in 7.0 mi North 11.5 mph - N/A   Overcast
8:10 AM 39.0 °F 31.4 °F 25.0 °F 57% 30.37 in 7.0 mi NNW 12.7 mph - N/A   Overcast
8:30 AM 39.0 °F 31.8 °F 25.0 °F 57% 30.38 in 6.0 mi NNW 11.5 mph - N/A   Haze
8:53 AM 39.0 °F 31.0 °F 25.0 °F 57% 30.34 in 7.0 mi NNW 13.8 mph - N/A   Mostly Cloudy
9:07 AM 39.9 °F 32.1 °F 25.0 °F 55% 30.41 in 8.0 mi NNW 13.8 mph - N/A   Scattered Clouds
9:53 AM 42.1 °F 33.1 °F 21.9 °F 45% 30.37 in 10.0 mi North 20.7 mph 25.3 mph N/A   Clear
10:53 AM 44.1 °F 37.7 °F 21.0 °F 40% 30.38 in 10.0 mi North 12.7 mph - N/A   Clear
11:53 AM 46.0 °F 39.3 °F 19.9 °F 35% 30.38 in 10.0 mi NNE 16.1 mph 23.0 mph N/A   Clear
12:53 PM 48.0 °F - 19.0 °F 32% 30.37 in 10.0 mi North 12.7 mph 16.1 mph N/A   Clear
1:53 PM 50.0 °F - 19.9 °F 31% 30.34 in 10.0 mi North 11.5 mph 20.7 mph N/A   Clear
2:53 PM 52.0 °F - 19.9 °F 28% 30.31 in 10.0 mi NNE 13.8 mph 24.2 mph N/A   Clear
3:53 PM 53.1 °F - 19.9 °F 27% 30.27 in 10.0 mi North - - N/A   Clear
4:53 PM 54.0 °F - 19.9 °F 26% 30.25 in 10.0 mi Variable 5.8 mph 18.4 mph N/A   Clear
5:53 PM 55.0 °F - 19.0 °F 24% 30.23 in 10.0 mi NNE 9.2 mph - N/A   Clear
6:53 PM 55.0 °F - 19.0 °F 24% 30.23 in 10.0 mi NE 8.1 mph - N/A   Clear
7:53 PM 52.0 °F - 19.0 °F 27% 30.25 in 10.0 mi NE 3.5 mph - N/A   Clear
8:53 PM 48.9 °F - 18.0 °F 29% 30.27 in 10.0 mi ENE 4.6 mph - N/A   Clear
9:53 PM 46.9 °F - 19.9 °F 34% 30.27 in 10.0 mi Calm Calm - N/A   Clear
10:53 PM 45.0 °F - 19.0 °F 36% 30.29 in 10.0 mi Calm Calm - N/A   Clear
11:53 PM 45.0 °F 43.5 °F 19.0 °F 36% 30.28 in 10.0 mi South 3.5 mph - N/A   Clear